Location: Arbon
(43.0005°N, 0.7472°E)
Time: 15:43:33
(UTC+00:00)

Envisat - Pass Details

Date: 31 October 2020
Orbit: 764 x 766 km, 98.1° (Epoch: 30 November)

Event Time Altitude Azimuth Distance (km) Brightness Sun altitude
Rises 04:32:12 0° 33° (NNE) 3,240 6.7 -22.1°
Reaches altitude 10° 04:35:50 10° 60° (ENE) 2,306 6.3 -21.4°
Maximum altitude 04:38:14 13° 89° (E) 2,076 6.3 -21.0°
Drops below altitude 10° 04:40:38 10° 117° (ESE) 2,298 6.4 -20.6°
Sets 04:44:13 0° 144° (SE) 3,217 6.8 -19.9°
